Flag for United Kingdom Weather past 2 weeks in Liverpool, England, United Kingdom

Now
77 °F

Passing clouds.


Feels Like: 79 °F
Forecast: 63 / 77 °F
Wind: 7 mph from Northwest

Location: Liverpool Airport

Current Time: Jul 22, 2014 at 7:08:44 PM

Latest Report: Jul 22, 2014 at 5:50 PM


Visibility: N/A

Pressure: 30.21 "Hg

Humidity: 57%

Dew point: 61 °F

Location of LiverpoolLocation

Historic Weather in Liverpool — Graph

°F

Liverpool temperature yesterday

Maximum temperature yesterday: 73 °F (at 4:50 PM)
Minimum temperature yesterday: 61 °F (at 12:20 AM)
Average temperature yesterday: 67 °F

Past Weeks' High & Low Weather Summary

 TemperatureHumidityPressure
High77 °F (Jul 17, 2:50 PM)100% (Jul 12, 3:20 AM)30.24 "Hg (Jul 12, 3:20 AM)
Low52 °F (Jul 14, 4:20 AM)42% (Jul 17, 3:50 PM)29.71 "Hg (Jul 13, 4:20 AM)
Average64 °F77%30.00 "Hg
* Reported Jul 7 5:20 PM — Jul 22 5:50 PM, Liverpool, Weather by CustomWeather, © 2014

Note: Actual official high and low records may vary slightly from our data, if they occured in-between our weather recording intervals... More about our weather records

Advertising

Liverpool weather history for previous 24 hours

 ConditionsComfort  
Time TempWeatherWind HumidityBarometerVisibility
5:50 PM
Jul 22
77 °FPassing clouds.7 mph57%30.21 "HgN/A
5:20 PM77 °FPassing clouds.7 mph54%30.21 "HgN/A
4:50 PM77 °FPassing clouds.9 mph57%30.21 "HgN/A
4:20 PM77 °FPassing clouds.8 mph57%30.21 "HgN/A
3:50 PM77 °FPassing clouds.5 mph54%30.21 "HgN/A
3:20 PM77 °FPassing clouds.6 mph51%30.21 "HgN/A
2:50 PM75 °FPassing clouds.6 mph54%30.24 "HgN/A
2:20 PM77 °FPassing clouds.5 mph51%30.24 "HgN/A
1:50 PM75 °FPassing clouds.6 mph54%30.24 "HgN/A
1:20 PM75 °FPassing clouds.7 mph54%30.24 "HgN/A
12:50 PM73 °FPassing clouds.6 mph57%30.24 "HgN/A
12:20 PM73 °FPassing clouds.5 mph53%30.24 "HgN/A
11:50 AM73 °FPassing clouds.6 mph57%30.24 "HgN/A
11:20 AM72 °FPassing clouds.6 mph65%30.24 "HgN/A
10:50 AM72 °FPassing clouds.5 mph61%30.24 "HgN/A
10:20 AM70 °FPassing clouds.3 mph73%30.24 "HgN/A
9:50 AM70 °FPassing clouds.3 mph69%30.24 "HgN/A
9:20 AM70 °FPassing clouds.5 mph69%30.24 "HgN/A
8:50 AM68 °FSunny.3 mph73%30.24 "Hg10 mi
8:20 AM66 °FPassing clouds.5 mph78%30.24 "HgN/A
7:50 AM64 °FFog.No wind73%30.24 "HgN/A
7:20 AM61 °FPartly sunny.No wind94%30.24 "HgN/A
6:50 AM59 °FSunny.3 mph94%30.24 "Hg10 mi
6:20 AM59 °FSunny.1 mph94%30.24 "Hg10 mi
5:50 AM59 °FClear.No wind100%30.24 "Hg10 mi
5:20 AM59 °FClear.No wind94%30.21 "Hg10 mi
4:50 AM59 °FClear.3 mph94%30.21 "Hg10 mi
4:20 AM57 °FClear.3 mph100%30.21 "Hg10 mi
3:50 AM59 °FClear.2 mph88%30.21 "Hg10 mi
3:20 AM59 °FClear.2 mph94%30.21 "Hg10 mi
2:50 AM61 °FClear.1 mph83%30.21 "Hg10 mi
2:20 AM63 °FClear.3 mph83%30.21 "Hg10 mi
1:50 AM63 °FClear.3 mph83%30.21 "Hg10 mi
1:20 AM63 °FClear.5 mph83%30.21 "Hg10 mi
12:50 AM64 °FClear.5 mph78%30.21 "Hg10 mi
12:20 AM64 °FClear.6 mph78%30.21 "Hg10 mi
11:50 PM
Jul 21
61 °FClear.7 mph88%30.21 "Hg10 mi
11:20 PM64 °FClear.3 mph78%30.18 "Hg10 mi
9:50 PM68 °FSunny.3 mph60%30.18 "Hg10 mi
8:50 PM70 °FSunny.6 mph60%30.18 "Hg10 mi
8:20 PM70 °FPassing clouds.6 mph57%30.18 "HgN/A
7:50 PM70 °FPassing clouds.7 mph57%30.15 "HgN/A
7:20 PM72 °FPassing clouds.7 mph53%30.15 "HgN/A
Weather by CustomWeather, © 2014

See weather overviewHow to use our weather pages